RW6A-13 Weather Reports


time (UTC)temp
C
wind
direction
speed
KPH
gust
KPH
rain 1hr
cm
rain 24hr
cm
rain mn
cm
humidity
%
barometer
mb
20260504050346 10 90 4.8 17.7 0.00 0.00 0.00 81 1008.3
20260504045847 10 45 8.0 17.7 0.00 0.00 0.00 81 1008.2
20260504045347 10 90 8.0 17.7 0.00 0.00 0.00 80 1008.1
20260504044847 10 90 6.4 17.7 0.00 0.00 0.00 80 1008.2
20260504044346 10 135 8.0 20.9 0.00 0.00 0.00 80 1008.2
20260504043847 10 45 6.4 22.5 0.00 0.00 0.00 81 1008.2
20260504043347 10 45 4.8 22.5 0.00 0.00 0.00 81 1008.3
20260504042846 10 45 8.0 12.9 0.00 0.00 0.00 81 1008.3
20260504042346 10 135 6.4 12.9 0.00 0.00 0.00 81 1008.3
20260504041846 10 45 6.4 12.9 0.00 0.00 0.00 81 1008.2
20260504041347 10 45 8.0 14.5 0.00 0.00 0.00 81 1008.2
20260504040846 10 68 6.4 16.1 0.00 0.00 0.00 81 1008.2
20260504040346 10 0 6.4 17.7 0.00 0.00 0.00 82 1008.2
20260504035846 9 90 4.8 11.3 0.00 0.00 0.00 82 1008.2
20260504035347 9 45 6.4 11.3 0.00 0.00 0.00 83 1008.2
20260504034846 9 45 4.8 14.5 0.00 0.00 0.00 83 1008.2
20260504034346 9 90 6.4 16.1 0.00 0.00 0.00 83 1008.2
20260504033846 9 90 3.2 11.3 0.00 0.00 0.00 83 1008.2
20260504033345 9 90 3.2 14.5 0.00 0.00 0.00 83 1008.3
20260504032846 9 90 3.2 11.3 0.00 0.00 0.00 83 1008.2
20260504032346 9 45 3.2 11.3 0.00 0.00 0.00 83 1008.3
20260504031845 9 0 6.4 11.3 0.00 0.00 0.00 83 1008.2
20260504031346 9 45 3.2 16.1 0.00 0.00 0.00 83 1008.1
20260504030846 9 90 4.8 12.9 0.00 0.00 0.00 82 1008.1
20260504030346 9 135 3.2 9.7 0.00 0.00 0.00 82 1008.2
20260504025845 9 90 4.8 12.9 0.00 0.00 0.00 82 1008.0
20260504025346 9 90 3.2 11.3 0.00 0.00 0.00 82 1007.9
20260504024846 9 90 3.2 12.9 0.00 0.00 0.00 82 1007.9
20260504024346 9 90 4.8 12.9 0.00 0.00 0.00 82 1007.9
20260504023845 9 68 6.4 12.9 0.00 0.00 0.00 81 1007.9
20260504023345 9 45 3.2 12.9 0.00 0.00 0.00 81 1007.9
20260504022846 9 113 4.8 16.1 0.00 0.00 0.00 81 1007.8
20260504022345 9 45 3.2 16.1 0.00 0.00 0.00 81 1007.8
20260504021845 9 90 4.8 12.9 0.00 0.00 0.00 81 1007.8
20260504021346 9 90 8.0 12.9 0.00 0.00 0.00 81 1007.8
20260504020845 9 68 6.4 12.9 0.00 0.00 0.00 81 1007.8
20260504020345 8 23 6.4 11.3 0.00 0.00 0.00 82 1007.8
20260504015845 8 68 3.2 11.3 0.00 0.00 0.00 82 1007.8
20260504015346 8 90 3.2 11.3 0.00 0.00 0.00 82 1007.8
20260504014845 8 45 4.8 12.9 0.00 0.00 0.00 82 1007.9
20260504014345 8 45 3.2 9.7 0.00 0.00 0.00 82 1007.9
20260504013845 8 90 3.2 8.0 0.00 0.00 0.00 82 1008.0
20260504013344 8 90 3.2 8.0 0.00 0.00 0.00 82 1008.1
20260504012845 8 135 3.2 12.9 0.00 0.00 0.00 82 1008.1
20260504012345 8 90 3.2 6.4 0.00 0.00 0.00 82 1008.2
20260504011845 8 45 3.2 14.5 0.00 0.00 0.00 82 1008.2
20260504011344 8 90 4.8 11.3 0.00 0.00 0.00 82 1008.3
20260504010845 8 45 3.2 12.9 0.00 0.00 0.00 82 1008.3
20260504010345 8 90 3.2 12.9 0.00 0.00 0.00 82 1008.3
20260504005845 8 90 3.2 12.9 0.00 0.00 0.00 83 1008.3
20260504005344 8 135 3.2 11.3 0.00 0.00 0.00 82 1008.2
20260504004845 8 90 3.2 11.3 0.00 0.00 0.00 83 1008.3
20260504004345 8 45 1.6 8.0 0.00 0.00 0.00 83 1008.2
20260504003844 8 270 1.6 8.0 0.00 0.00 0.00 83 1008.3
20260504003344 8 0 3.2 12.9 0.00 0.00 0.00 84 1008.2
20260504002845 8 90 3.2 12.9 0.00 0.00 0.00 84 1008.3
20260504002345 8 90 0.0 11.3 0.00 0.00 0.00 84 1008.3
20260504001844 8 0 3.2 6.4 0.00 0.00 0.00 85 1008.5
20260504001344 8 45 4.8 11.3 0.00 0.00 0.00 85 1008.5
20260504000845 8 68 3.2 11.3 0.00 0.00 0.00 85 1008.6
20260504000344 8 90 1.6 8.0 0.00 0.00 0.00 84 1008.7
20260503235844 8 90 1.6 8.0 0.00 0.00 0.00 84 1008.9
20260503235344 8 90 3.2 11.3 0.00 0.00 0.00 84 1008.9
20260503234843 8 90 3.2 8.0 0.00 0.00 0.00 84 1009.0
20260503234344 8 45 3.2 11.3 0.00 0.00 0.00 84 1009.1
20260503233844 8 90 3.2 12.9 0.00 0.00 0.00 84 1009.0
20260503233344 8 90 3.2 11.3 0.00 0.00 0.00 84 1009.1
20260503232844 8 45 3.2 11.3 0.00 0.00 0.00 84 1009.2
20260503232344 8 68 3.2 9.7 0.00 0.00 0.00 84 1009.2
20260503231844 8 158 1.6 11.3 0.00 0.00 0.00 84 1009.2
20260503231343 8 90 1.6 8.0 0.00 0.00 0.00 85 1009.3
20260503230843 8 23 3.2 8.0 0.00 0.00 0.00 85 1009.3
20260503230344 8 90 3.2 8.0 0.00 0.00 0.00 85 1009.4
20260503225843 8 225 0.0 3.2 0.00 0.00 0.00 85 1009.3
20260503225343 8 90 1.6 8.0 0.00 0.00 0.00 86 1009.3
20260503224844 8 0 3.2 8.0 0.00 0.00 0.00 86 1009.2
20260503224344 8 45 0.0 8.0 0.00 0.00 0.00 86 1009.3
20260503223843 7 90 3.2 8.0 0.00 0.00 0.00 87 1009.2
20260503223343 7 90 0.0 6.4 0.00 0.00 0.00 87 1009.2
20260503222844 7 270 0.0 6.4 0.00 0.00 0.00 88 1009.1
20260503222343 7 0 0.0 3.2 0.00 0.00 0.00 88 1009.1
20260503221843 7 0 0.0 1.6 0.00 0.00 0.00 88 1009.2
20260503221343 7 45 0.0 3.2 0.00 0.00 0.00 88 1009.4
20260503220844 7 45 0.0 0.0 0.00 0.00 0.00 88 1009.5
20260503220342 7 0 0.0 0.0 0.00 0.00 0.00 88 1009.7
20260503215842 7 45 0.0 3.2 0.00 0.00 0.00 87 1009.7
20260503215343 7 45 0.0 3.2 0.00 0.00 0.00 87 1009.6
20260503214842 7 45 0.0 0.0 0.00 0.00 0.00 87 1009.9
20260503213811 8 0 0.0 0.0 0.00 0.00 0.00 86 1010.0
20260503213310 8 0 0.0 0.0 0.00 0.00 0.00 86 1010.1
20260503212811 8 0 0.0 1.6 0.00 0.00 0.00 86 1010.0
20260503212311 8 45 0.0 0.0 0.00 0.00 0.00 86 1010.1
20260503211811 8 45 0.0 3.2 0.00 0.00 0.00 86 1010.2
20260503211310 8 90 0.0 3.2 0.00 0.00 0.00 86 1010.2
20260503210810 8 45 0.0 0.0 0.00 0.00 0.00 86 1010.2
20260503210311 8 45 0.0 0.0 0.00 0.00 0.00 86 1010.3
20260503205810 8 45 0.0 1.6 0.00 0.00 0.00 85 1010.3
20260503205310 8 45 0.0 3.2 0.00 0.00 0.00 85 1010.4
20260503204810 8 45 0.0 1.6 0.00 0.00 0.00 85 1010.4
20260503204310 8 0 0.0 3.2 0.00 0.00 0.00 85 1010.4
20260503203810 8 68 0.0 1.6 0.00 0.00 0.00 85 1010.6
20260503203310 8 45 0.0 3.2 0.00 0.00 0.00 85 1010.5
20260503202810 8 0 0.0 0.0 0.00 0.00 0.00 85 1010.4
20260503202310 8 45 0.0 0.0 0.00 0.00 0.00 84 1010.4
20260503201809 8 45 0.0 3.2 0.00 0.00 0.00 84 1010.5
20260503201310 8 45 0.0 3.2 0.00 0.00 0.00 83 1010.4
20260503200810 8 0 0.0 3.2 0.00 0.00 0.00 83 1010.4
20260503200309 8 45 0.0 3.2 0.00 0.00 0.00 83 1010.4
20260503195809 8 90 0.0 3.2 0.00 0.00 0.00 84 1010.4
20260503195310 8 45 0.0 1.6 0.00 0.00 0.00 83 1010.4
20260503194810 8 45 0.0 3.2 0.00 0.00 0.00 83 1010.5
20260503194309 8 45 0.0 1.6 0.00 0.00 0.00 83 1010.6
20260503193810 8 45 0.0 1.6 0.00 0.00 0.00 83 1010.6
20260503193310 8 45 0.0 3.2 0.00 0.00 0.00 83 1010.6
20260503192810 8 0 0.0 0.0 0.00 0.00 0.00 83 1010.7
20260503192309 8 0 0.0 0.0 0.00 0.00 0.00 83 1010.7
20260503191809 8 0 0.0 0.0 0.00 0.00 0.00 83 1010.8
20260503191310 9 0 0.0 0.0 0.00 0.00 0.00 83 1010.8
20260503190809 9 0 0.0 0.0 0.00 0.00 0.00 83 1011.0
20260503190309 9 0 0.0 0.0 0.00 0.00 0.00 82 1011.0
20260503185809 9 0 0.0 0.0 0.00 0.00 0.00 81 1011.1
20260503185310 9 0 0.0 3.2 0.00 0.00 0.00 81 1011.1
20260503184809 10 45 0.0 3.2 0.00 0.00 0.00 80 1011.2
20260503184309 10 90 0.0 3.2 0.00 0.00 0.00 80 1011.3
20260503183810 10 90 0.0 1.6 0.00 0.00 0.00 80 1011.3
20260503183309 10 90 0.0 3.2 0.00 0.00 0.00 80 1011.3
20260503182809 10 90 1.6 3.2 0.00 0.00 0.00 80 1011.4
20260503182310 10 90 0.0 3.2 0.00 0.00 0.00 80 1011.5
20260503181808 10 90 0.0 3.2 0.00 0.00 0.00 80 1011.5
20260503181309 10 45 0.0 3.2 0.00 0.00 0.00 79 1011.6
20260503180809 10 90 0.0 4.8 0.00 0.00 0.00 79 1011.7
20260503180309 10 68 0.0 3.2 0.00 0.00 0.00 78 1011.7
20260503175808 10 45 0.0 3.2 0.00 0.00 0.00 78 1011.7
20260503175309 10 45 0.0 1.6 0.00 0.00 0.00 78 1011.7
20260503174809 10 0 0.0 3.2 0.00 0.00 0.00 77 1011.8
20260503174309 10 45 0.0 3.2 0.00 0.00 0.00 77 1011.7
20260503173808 10 90 0.0 3.2 0.00 0.00 0.00 77 1011.6
20260503173309 10 90 0.0 4.8 0.00 0.00 0.00 76 1011.6
20260503172808 10 90 1.6 3.2 0.00 0.00 0.00 76 1011.6
20260503172308 10 90 1.6 6.4 0.00 0.00 0.00 76 1011.6
20260503171808 10 90 1.6 3.2 0.00 0.00 0.00 75 1011.6
20260503171309 11 45 0.0 3.2 0.00 0.00 0.00 74 1011.6
20260503170808 11 90 0.0 3.2 0.00 0.00 0.00 74 1011.6
20260503170308 11 90 1.6 4.8 0.00 0.00 0.00 73 1011.7
20260503150807 12 90 4.8 9.7 0.00 0.00 0.00 62 1011.3
20260503150307 13 113 4.8 17.7 0.00 0.00 0.00 62 1011.4
20260503140306 13 45 4.8 12.9 0.00 0.00 0.00 58 1011.8
20260503131306 13 135 8.0 17.7 0.00 0.00 0.00 58 1012.0
20260503130806 13 135 8.0 17.7 0.00 0.00 0.00 59 1012.0
20260503130306 13 90 6.4 11.3 0.00 0.00 0.00 57 1012.1
20260503110804 14 90 8.0 16.1 0.00 0.00 0.00 55 1013.2
20260503110305 14 0 4.8 12.9 0.00 0.00 0.00 54 1013.1
20260503090304 13 90 3.2 12.9 0.00 0.00 0.00 56 1013.9
20260503081304 14 45 6.4 14.5 0.00 0.00 0.00 54 1014.3
20260503080803 13 90 4.8 14.5 0.00 0.00 0.00 55 1014.3
20260503080303 13 90 4.8 12.9 0.00 0.00 0.00 52 1014.3
20260503072803 13 90 8.0 17.7 0.00 0.00 0.00 56 1014.5
20260503072305 13 90 4.8 17.7 0.00 0.00 0.00 58 1014.6
20260503071803 13 45 3.2 14.5 0.00 0.00 0.00 60 1014.6
20260503071303 13 68 8.0 16.1 0.00 0.00 0.00 55 1014.6
20260503070803 13 0 8.0 17.7 0.00 0.00 0.00 57 1014.7
20260503070304 13 90 4.8 16.1 0.00 0.00 0.00 57 1014.7
20260503060301 13 23 1.6 6.4 0.00 0.00 0.00 64 1015.0
20260503054801 12 0 1.6 8.0 0.00 0.00 0.00 68 1014.9
20260503054301 12 90 3.2 8.0 0.00 0.00 0.00 66 1015.0
20260503053802 12 45 3.2 8.0 0.00 0.00 0.00 65 1015.0
20260503053301 12 45 1.6 8.0 0.00 0.03 0.00 69 1015.1
20260503052801 12 90 3.2 6.4 0.00 0.03 0.00 68 1015.1